Flag for Guernsey Weather past 2 weeks in St. Peter Port, Guernsey

Now
46 °F

Passing clouds.


Feels Like: 40 °F
Forecast: 46 / 50 °F
Wind: 15 mph from South

Location: Guernsey Airport

Current Time: Feb 28, 2015 at 5:54:16 AM

Latest Report: Feb 28, 2015 at 5:20 AM


Visibility: N/A

Pressure: 29.95 "Hg

Humidity: 93%

Dew point: 45 °F

Location of St. Peter PortLocation

Historic Weather in St. Peter Port — Graph

°F

St. Peter Port temperature yesterday

Maximum temperature yesterday: 48 °F (at 11:50 AM)
Minimum temperature yesterday: 41 °F (at 5:20 AM)
Average temperature yesterday: 44 °F

Past Weeks' High & Low Weather Summary

 TemperatureHumidityPressure
High52 °F (Feb 25, 1:20 PM)100% (Feb 13, 4:20 AM)30.77 "Hg (Feb 13, 4:20 AM)
Low37 °F (Feb 22, 4:20 AM)66% (Feb 18, 4:20 PM)29.42 "Hg (Feb 23, 4:20 AM)
Average45 °F87%29.94 "Hg
* Reported Feb 13 4:20 AM — Feb 28 4:20 AM, St. Peter Port, Weather by CustomWeather, © 2015

Note: Actual official high and low records may vary slightly from our data, if they occured in-between our weather recording intervals... More about our weather records

Advertising

St. Peter Port weather history for previous 24 hours

 ConditionsComfort  
Time TempWeatherWind HumidityBarometerVisibility
4:20 AM
Sat, Feb 28
46 °FPassing clouds.16 mph93%29.95 "HgN/A
8:50 PM
Fri, Feb 27
45 °FPassing clouds.15 mph87%30.12 "HgN/A
8:20 PM45 °FPassing clouds.14 mph81%30.15 "HgN/A
7:50 PM45 °FPassing clouds.10 mph81%30.15 "HgN/A
7:20 PM45 °FPassing clouds.10 mph87%30.18 "HgN/A
6:50 PM45 °FPassing clouds.9 mph81%30.18 "HgN/A
6:20 PM45 °FPassing clouds.8 mph81%30.18 "HgN/A
5:50 PM43 °FPassing clouds.5 mph87%30.18 "HgN/A
5:20 PM43 °FScattered showers. Passing clouds.7 mph87%30.18 "HgN/A
4:50 PM43 °FScattered showers. Scattered clouds.13 mph87%30.18 "HgN/A
4:20 PM45 °FScattered showers. Passing clouds.10 mph81%30.18 "HgN/A
3:50 PM46 °FScattered showers. Passing clouds.12 mph76%30.18 "HgN/A
3:20 PM46 °FScattered showers. Scattered clouds.5 mph82%30.21 "HgN/A
2:50 PM45 °FSprinkles. Partly sunny.8 mph81%30.21 "HgN/A
2:20 PM48 °FScattered showers. Passing clouds.8 mph71%30.21 "HgN/A
1:50 PM46 °FScattered showers. Scattered clouds.9 mph71%30.21 "HgN/A
1:20 PM46 °FScattered showers. Scattered clouds.12 mph71%30.21 "HgN/A
12:50 PM46 °FPassing clouds.10 mph71%30.21 "HgN/A
12:20 PM48 °FScattered clouds.10 mph66%30.24 "HgN/A
11:50 AM48 °FScattered clouds.8 mph66%30.24 "HgN/A
11:20 AM46 °FScattered clouds.12 mph71%30.24 "HgN/A
10:50 AM46 °FScattered clouds.10 mph66%30.24 "HgN/A
10:20 AM46 °FScattered clouds.10 mph71%30.21 "HgN/A
9:50 AM45 °FScattered clouds.12 mph76%30.21 "HgN/A
9:20 AM45 °FPassing clouds.13 mph71%30.21 "HgN/A
8:50 AM43 °FPassing clouds.12 mph76%30.21 "HgN/A
8:20 AM43 °FPassing clouds.10 mph76%30.18 "HgN/A
7:50 AM43 °FPassing clouds.13 mph71%30.18 "HgN/A
7:20 AM41 °FPassing clouds.10 mph81%30.18 "HgN/A
6:50 AM41 °FPassing clouds.12 mph81%30.18 "HgN/A
6:20 AM43 °FPassing clouds.14 mph76%30.18 "HgN/A
5:50 AM41 °FPassing clouds.13 mph76%30.18 "HgN/A
5:20 AM41 °FPassing clouds.12 mph76%30.15 "HgN/A
Weather by CustomWeather, © 2015

See weather overviewHow to use our weather pages